Time,TemperatureF,DewpointF,PressureIn,WindDirection,WindDirectionDegrees,WindSpeedMPH,WindSpeedGustMPH,Humidity,HourlyPrecipIn,Conditions,Clouds,dailyrainin,SoftwareType,DateUTC
2013-03-24 00:11:00,39.1,30.0,29.88,SE,135,10.0,22.0,71,0.00,,,0.00,weatherlink.com 1.10,2013-03-24 05:11:00,
2013-03-24 00:56:00,34.8,32.0,29.90,ESE,107,13.0,15.0,88,0.04,,,0.00,weatherlink.com 1.10,2013-03-24 05:56:00,
2013-03-24 01:11:00,34.3,31.0,29.90,ENE,71,3.0,12.0,89,0.04,,,0.00,weatherlink.com 1.10,2013-03-24 06:11:00,
2013-03-24 01:26:00,33.6,31.0,29.90,ESE,115,6.0,14.0,91,0.02,,,0.00,weatherlink.com 1.10,2013-03-24 06:26:00,
2013-03-24 01:41:00,32.5,31.0,29.89,SE,125,6.0,12.0,92,0.01,,,0.00,weatherlink.com 1.10,2013-03-24 06:41:00,
2013-03-24 01:56:00,31.7,30.0,29.87,SSE,155,2.0,17.0,93,0.00,,,0.00,weatherlink.com 1.10,2013-03-24 06:56:00,
2013-03-24 02:11:00,31.3,30.0,29.85,SE,128,10.0,17.0,94,0.00,,,0.00,weatherlink.com 1.10,2013-03-24 07:11:00,
2013-03-24 02:26:00,31.1,30.0,29.84,SSE,162,5.0,17.0,94,0.00,,,0.00,weatherlink.com 1.10,2013-03-24 07:26:00,
2013-03-24 02:42:00,31.0,30.0,29.82,South,169,5.0,14.0,95,0.00,,,0.00,weatherlink.com 1.10,2013-03-24 07:42:00,
2013-03-24 02:57:00,30.8,30.0,29.81,ESE,118,11.0,17.0,95,0.01,,,0.01,weatherlink.com 1.10,2013-03-24 07:57:00,
2013-03-24 03:12:00,30.7,30.0,29.79,SSW,198,2.0,15.0,95,0.01,,,0.01,weatherlink.com 1.10,2013-03-24 08:12:00,
2013-03-24 03:27:00,30.6,29.0,29.81,ESE,107,8.0,14.0,95,0.01,,,0.01,weatherlink.com 1.10,2013-03-24 08:27:00,
2013-03-24 03:42:00,30.7,30.0,29.81,SE,131,4.0,10.0,95,0.01,,,0.01,weatherlink.com 1.10,2013-03-24 08:42:00,
2013-03-24 03:57:00,30.7,30.0,29.80,SSE,149,2.0,7.0,95,0.00,,,0.01,weatherlink.com 1.10,2013-03-24 08:57:00,
2013-03-24 04:12:00,30.8,30.0,29.80,NW,319,1.0,10.0,95,0.00,,,0.01,weatherlink.com 1.10,2013-03-24 09:12:00,
2013-03-24 04:27:00,30.8,30.0,29.79,NNE,17,2.0,13.0,95,0.00,,,0.01,weatherlink.com 1.10,2013-03-24 09:27:00,
2013-03-24 04:42:00,30.7,30.0,29.78,SSE,160,3.0,13.0,95,0.00,,,0.01,weatherlink.com 1.10,2013-03-24 09:42:00,
2013-03-24 05:12:00,30.2,29.0,29.75,ENE,62,10.0,14.0,95,0.00,,,0.01,weatherlink.com 1.10,2013-03-24 10:12:00,
2013-03-24 05:27:00,30.1,29.0,29.74,East,88,2.0,14.0,96,0.00,,,0.01,weatherlink.com 1.10,2013-03-24 10:27:00,
2013-03-24 05:42:00,30.1,29.0,29.74,SSE,150,4.0,13.0,96,0.00,,,0.01,weatherlink.com 1.10,2013-03-24 10:42:00,
2013-03-24 05:57:00,30.0,29.0,29.73,ENE,63,2.0,15.0,96,0.00,,,0.01,weatherlink.com 1.10,2013-03-24 10:57:00,
2013-03-24 06:12:00,29.8,29.0,29.73,East,101,6.0,12.0,96,0.00,,,0.01,weatherlink.com 1.10,2013-03-24 11:12:00,
2013-03-24 06:27:00,29.7,29.0,29.71,SSW,201,3.0,11.0,96,0.00,,,0.01,weatherlink.com 1.10,2013-03-24 11:27:00,
2013-03-24 06:42:00,29.5,29.0,29.70,SSE,151,4.0,15.0,96,0.00,,,0.01,weatherlink.com 1.10,2013-03-24 11:42:00,
2013-03-24 06:57:00,29.5,29.0,29.69,West,262,3.0,13.0,96,0.00,,,0.01,weatherlink.com 1.10,2013-03-24 11:57:00,
2013-03-24 07:12:00,29.5,29.0,29.67,ESE,109,2.0,17.0,96,0.00,,,0.01,weatherlink.com 1.10,2013-03-24 12:12:00,
2013-03-24 07:27:00,29.5,29.0,29.65,NE,51,6.0,15.0,96,0.00,,,0.01,weatherlink.com 1.10,2013-03-24 12:27:00,
2013-03-24 07:42:00,29.5,29.0,29.63,East,84,9.0,17.0,96,0.00,,,0.01,weatherlink.com 1.10,2013-03-24 12:42:00,
2013-03-24 08:12:00,29.6,29.0,29.64,SSE,165,2.0,14.0,96,0.00,,,0.01,weatherlink.com 1.10,2013-03-24 13:12:00,
2013-03-24 08:27:00,29.7,29.0,29.64,ESE,117,9.0,14.0,96,0.00,,,0.01,weatherlink.com 1.10,2013-03-24 13:27:00,
2013-03-24 08:42:00,29.6,29.0,29.65,East,82,5.0,15.0,96,0.00,,,0.01,weatherlink.com 1.10,2013-03-24 13:42:00,
2013-03-24 08:58:00,29.6,29.0,29.68,ENE,70,4.0,7.0,96,0.00,,,0.01,weatherlink.com 1.10,2013-03-24 13:58:00,
2013-03-24 09:13:00,29.4,28.0,29.70,NE,41,5.0,8.0,96,0.00,,,0.01,weatherlink.com 1.10,2013-03-24 14:13:00,
2013-03-24 09:28:00,29.2,28.0,29.68,ESE,113,4.0,9.0,96,0.00,,,0.01,weatherlink.com 1.10,2013-03-24 14:28:00,
2013-03-24 09:43:00,29.0,28.0,29.68,East,85,11.0,14.0,96,0.00,,,0.01,weatherlink.com 1.10,2013-03-24 14:43:00,
2013-03-24 09:58:00,28.8,28.0,29.66,ENE,58,6.0,17.0,96,0.00,,,0.01,weatherlink.com 1.10,2013-03-24 14:58:00,
2013-03-24 10:13:00,28.6,28.0,29.66,ESE,105,11.0,14.0,96,0.00,,,0.01,weatherlink.com 1.10,2013-03-24 15:13:00,
2013-03-24 10:28:00,28.4,27.0,29.66,East,88,17.0,21.0,96,0.00,,,0.01,weatherlink.com 1.10,2013-03-24 15:28:00,
2013-03-24 10:43:00,28.4,27.0,29.66,ESE,110,11.0,17.0,96,0.00,,,0.01,weatherlink.com 1.10,2013-03-24 15:43:00,
2013-03-24 10:58:00,28.3,27.0,29.65,ESE,121,8.0,18.0,96,0.00,,,0.01,weatherlink.com 1.10,2013-03-24 15:58:00,
2013-03-24 11:15:00,28.3,27.0,29.63,East,84,13.0,19.0,96,0.00,,,0.01,weatherlink.com 1.10,2013-03-24 16:15:00,
2013-03-24 11:28:00,28.5,28.0,29.62,ENE,72,15.0,20.0,96,0.00,,,0.01,weatherlink.com 1.10,2013-03-24 16:28:00,
2013-03-24 11:43:00,28.7,28.0,29.62,East,100,8.0,21.0,96,0.00,,,0.01,weatherlink.com 1.10,2013-03-24 16:43:00,
2013-03-24 11:58:00,28.9,28.0,29.62,ENE,77,12.0,22.0,96,0.00,,,0.01,weatherlink.com 1.10,2013-03-24 16:58:00,
2013-03-24 12:13:00,29.0,28.0,29.61,East,101,14.0,25.0,96,0.00,,,0.01,weatherlink.com 1.10,2013-03-24 17:13:00,
2013-03-24 12:28:00,29.1,28.0,29.60,East,79,13.0,24.0,96,0.00,,,0.01,weatherlink.com 1.10,2013-03-24 17:28:00,
2013-03-24 12:43:00,29.0,28.0,29.58,East,97,20.0,25.0,96,0.00,,,0.01,weatherlink.com 1.10,2013-03-24 17:43:00,
2013-03-24 12:58:00,29.0,28.0,29.59,NE,41,8.0,24.0,96,0.00,,,0.01,weatherlink.com 1.10,2013-03-24 17:58:00,
2013-03-24 13:13:00,29.2,28.0,29.59,ENE,73,12.0,18.0,96,0.00,,,0.01,weatherlink.com 1.10,2013-03-24 18:13:00,
2013-03-24 13:28:00,29.1,28.0,29.60,ENE,74,9.0,21.0,96,0.00,,,0.01,weatherlink.com 1.10,2013-03-24 18:28:00,
2013-03-24 13:44:00,29.1,28.0,29.60,ENE,76,14.0,16.0,96,0.00,,,0.01,weatherlink.com 1.10,2013-03-24 18:44:00,
2013-03-24 13:58:00,29.2,28.0,29.60,East,88,7.0,17.0,96,0.00,,,0.01,weatherlink.com 1.10,2013-03-24 18:58:00,
2013-03-24 14:13:00,29.2,28.0,29.60,NNW,345,7.0,20.0,96,0.00,,,0.01,weatherlink.com 1.10,2013-03-24 19:13:00,
2013-03-24 14:28:00,29.2,28.0,29.61,NNE,29,6.0,18.0,96,0.00,,,0.01,weatherlink.com 1.10,2013-03-24 19:28:00,
2013-03-24 14:43:00,29.3,28.0,29.62,NE,55,12.0,13.0,96,0.00,,,0.01,weatherlink.com 1.10,2013-03-24 19:43:00,
2013-03-24 14:58:00,29.2,28.0,29.62,ENE,62,10.0,16.0,96,0.00,,,0.01,weatherlink.com 1.10,2013-03-24 19:58:00,
2013-03-24 15:13:00,29.2,28.0,29.63,NE,45,5.0,15.0,96,0.00,,,0.01,weatherlink.com 1.10,2013-03-24 20:13:00,
2013-03-24 15:28:00,29.2,28.0,29.63,NE,47,9.0,15.0,96,0.00,,,0.01,weatherlink.com 1.10,2013-03-24 20:28:00,
2013-03-24 15:43:00,29.3,28.0,29.63,NNE,30,12.0,15.0,96,0.00,,,0.01,weatherlink.com 1.10,2013-03-24 20:43:00,
2013-03-24 15:58:00,29.4,28.0,29.64,NE,37,8.0,17.0,96,0.00,,,0.01,weatherlink.com 1.10,2013-03-24 20:58:00,
2013-03-24 16:13:00,29.4,28.0,29.65,NNW,327,5.0,16.0,96,0.00,,,0.01,weatherlink.com 1.10,2013-03-24 21:13:00,
2013-03-24 16:28:00,29.6,29.0,29.65,ENE,58,13.0,14.0,96,0.00,,,0.01,weatherlink.com 1.10,2013-03-24 21:28:00,
2013-03-24 16:43:00,29.7,29.0,29.66,NE,43,12.0,16.0,96,0.00,,,0.01,weatherlink.com 1.10,2013-03-24 21:43:00,
2013-03-24 16:58:00,29.4,28.0,29.67,ENE,63,9.0,15.0,96,0.00,,,0.01,weatherlink.com 1.10,2013-03-24 21:58:00,
2013-03-24 17:13:00,29.4,28.0,29.67,NNW,334,11.0,17.0,96,0.00,,,0.01,weatherlink.com 1.10,2013-03-24 22:13:00,
2013-03-24 17:28:00,29.3,28.0,29.68,NNW,347,11.0,21.0,96,0.00,,,0.01,weatherlink.com 1.10,2013-03-24 22:28:00,
2013-03-24 17:43:00,29.1,28.0,29.69,NNE,33,13.0,20.0,96,0.00,,,0.01,weatherlink.com 1.10,2013-03-24 22:43:00,
2013-03-24 17:58:00,29.1,28.0,29.70,NNE,33,14.0,17.0,96,0.00,,,0.01,weatherlink.com 1.10,2013-03-24 22:58:00,
2013-03-24 18:13:00,29.1,28.0,29.71,ENE,62,12.0,21.0,96,0.00,,,0.01,weatherlink.com 1.10,2013-03-24 23:13:00,
2013-03-24 18:28:00,29.1,28.0,29.71,NE,41,11.0,20.0,96,0.00,,,0.01,weatherlink.com 1.10,2013-03-24 23:28:00,
2013-03-24 18:43:00,29.1,28.0,29.73,NNE,22,10.0,20.0,96,0.00,,,0.01,weatherlink.com 1.10,2013-03-24 23:43:00,
2013-03-24 18:58:00,29.1,28.0,29.73,North,357,13.0,18.0,96,0.00,,,0.01,weatherlink.com 1.10,2013-03-24 23:58:00,
2013-03-24 19:13:00,29.2,28.0,29.74,North,1,10.0,21.0,96,0.00,,,0.01,weatherlink.com 1.10,2013-03-25 00:13:00,
2013-03-24 19:28:00,29.2,28.0,29.75,NNW,335,9.0,21.0,96,0.00,,,0.01,weatherlink.com 1.10,2013-03-25 00:28:00,
2013-03-24 19:44:00,29.2,28.0,29.76,NNE,27,11.0,19.0,96,0.00,,,0.01,weatherlink.com 1.10,2013-03-25 00:44:00,
2013-03-24 19:59:00,29.3,28.0,29.77,NE,49,11.0,20.0,96,0.00,,,0.01,weatherlink.com 1.10,2013-03-25 00:59:00,
2013-03-24 20:13:00,29.3,28.0,29.77,NNE,21,15.0,19.0,96,0.00,,,0.01,weatherlink.com 1.10,2013-03-25 01:13:00,
2013-03-24 20:28:00,29.3,28.0,29.78,NNE,25,9.0,18.0,96,0.00,,,0.01,weatherlink.com 1.10,2013-03-25 01:28:00,
2013-03-24 20:43:00,29.3,28.0,29.79,NNE,27,11.0,19.0,96,0.00,,,0.01,weatherlink.com 1.10,2013-03-25 01:43:00,
2013-03-24 20:58:00,29.3,29.0,29.79,NNE,12,8.0,22.0,97,0.00,,,0.01,weatherlink.com 1.10,2013-03-25 01:58:00,
2013-03-24 21:13:00,29.3,29.0,29.80,NNE,16,7.0,21.0,97,0.00,,,0.01,weatherlink.com 1.10,2013-03-25 02:13:00,
2013-03-24 21:29:00,29.3,29.0,29.81,NE,40,5.0,21.0,97,0.00,,,0.01,weatherlink.com 1.10,2013-03-25 02:29:00,
2013-03-24 21:44:00,29.3,29.0,29.82,NNW,339,12.0,17.0,97,0.00,,,0.01,weatherlink.com 1.10,2013-03-25 02:44:00,
2013-03-24 21:59:00,29.2,29.0,29.82,NNE,16,10.0,19.0,97,0.00,,,0.01,weatherlink.com 1.10,2013-03-25 02:59:00,
2013-03-24 22:14:00,29.1,28.0,29.82,NNE,20,9.0,16.0,96,0.00,,,0.01,weatherlink.com 1.10,2013-03-25 03:14:00,
2013-03-24 22:29:00,28.9,28.0,29.83,North,10,6.0,17.0,96,0.00,,,0.01,weatherlink.com 1.10,2013-03-25 03:29:00,
2013-03-24 22:44:00,28.8,28.0,29.83,NNE,14,9.0,16.0,96,0.00,,,0.01,weatherlink.com 1.10,2013-03-25 03:44:00,
2013-03-24 22:59:00,28.7,28.0,29.84,North,351,7.0,19.0,96,0.00,,,0.01,weatherlink.com 1.10,2013-03-25 03:59:00,
2013-03-24 23:14:00,28.8,28.0,29.83,NNE,13,9.0,20.0,96,0.00,,,0.01,weatherlink.com 1.10,2013-03-25 04:14:00,
2013-03-24 23:29:00,28.8,28.0,29.84,NE,41,9.0,16.0,96,0.00,,,0.01,weatherlink.com 1.10,2013-03-25 04:29:00,
2013-03-24 23:44:00,28.6,28.0,29.84,NNE,25,11.0,19.0,96,0.00,,,0.01,weatherlink.com 1.10,2013-03-25 04:44:00,
2013-03-24 23:59:00,28.5,28.0,29.84,NNE,19,12.0,17.0,96,0.00,,,0.01,weatherlink.com 1.10,2013-03-25 04:59:00,